Regional Weather Roundup
Issued by NWS Albany, NY

Home | Current Version | Previous Version | Text Only | Print | Product List | Glossary On
Versions: 1 2 3 4 5 6 7 8 9 10 11 12 13 14 15 16 17 18 19 20 21 22 23 24 25 26 27 28
000
ASUS41 KALY 262010
RWRALY

NEW YORK STATE HOURLY WEATHER ROUNDUP
NATIONAL WEATHER SERVICE ALBANY NY
400 PM EDT WED APR 26 2017

NOTE: "FAIR" INDICATES FEW OR NO CLOUDS BELOW 12,000 FEET WITH NO
SIGNIFICANT WEATHER AND/OR NO OBSTRUCTIONS TO VISIBILITY.

NYZ032-033-038>043-046>054-057>066-NYZ062>081-082-084-262100-
EAST


CITY           SKY/WX    TMP DP  RH WIND       PRES   REMARKS
ALBANY         PTSUNNY   69  57  65 VRB3      29.77F
GLENS FALLS    MOSUNNY   69  55  60 E10       29.78F
POUGHKEEPSIE   CLOUDY    59  55  87 NW8       29.76F
NEWBURGH       CLOUDY    61  59  94 NE7       29.79F
MONTGOMERY     CLOUDY    60  55  83 N8        29.77F
WHITE PLAINS   CLOUDY    60  56  86 S5        29.76F
ISLIP          CLOUDY    62  58  86 NE14      29.75S
NEW YORK CITY  CLOUDY    60  56  86 NE12G23   29.76F FOG
CENTRAL PARK   CLOUDY    58  57  97 NE7       29.79S FOG
$$

NYZ005>009-017-018-044>046-055-056-262100-
CENTRAL


CITY           SKY/WX    TMP DP  RH WIND       PRES   REMARKS
FULTON         SUNNY     74  55  51 VRB5      29.73F
SYRACUSE       MOSUNNY   72  57  59 E6        29.73F
ROME           CLOUDY    72  57  59 S7        29.75F
ELMIRA         SUNNY     75  56  51 CALM      29.73F
BINGHAMTON     SUNNY     70  55  59 SE8       29.75F
MONTICELLO     CLOUDY    61  55  82 E8        29.80R
$$

NYZ026>034-041>043-087-262100-
NORTH


CITY           SKY/WX    TMP DP  RH WIND       PRES   REMARKS
WATERTOWN      MOSUNNY   73  59  61 W9        29.73F
FORT DRUM      NOT AVBL
OGDENSBURG     PTSUNNY   70  58  64 NE8       29.76F
MASSENA        CLOUDY    64  56  75 NE13      29.80F
SARANAC LAKE   CLOUDY    68  57  68 W6        29.78F
PLATTSBURGH    CLOUDY    67  52  58 SE6       29.80F
$$

NYZ001>004-010>016-019>021-085-262100-
WEST


CITY           SKY/WX    TMP DP  RH WIND       PRES   REMARKS
NIAGARA FALLS  SUNNY     72  56  57 CALM      29.70F
BUFFALO        MOSUNNY   73  57  57 NW5       29.70F
DUNKIRK        SUNNY     64  54  69 NE12      29.70F
JAMESTOWN      SUNNY     73  55  53 S8        29.72S
WELLSVILLE     MOSUNNY   74  54  49 SE8       29.76F
ROCHESTER      MOSUNNY   69  55  60 NE13      29.73F
PENN YAN       SUNNY     72  55  55 VRB5      29.74F
$$

             KEY
       WCI = WIND CHILL INDEX
       VSB = VISIBILITY
       HX  = HEAT INDEX
$$




USA.gov is the U.S. government's official web portal to all federal, state and local government web resources and services.